This demonstration page uses our WeatherBlox Daily Observations layout. Learn more.

Left ArrowRight Arrow

Hourly Observations for January 23, 2023

Temp ( °F °C ) Dew Point ( °F °C ) Humidity (%) Winds ( mph kmh ) Pressure ( in mb ) Visibility ( mi km ) Precip ( " mm )
12:54 am 00:54 Clear 14 -10 9 -12.8 80 80 Calm 30.16 1021 9 14 0.00 0.00
1:54 am 01:54 Clear 13 -10.6 8 -13.3 80 80 Calm 30.18 1022 7 11 0.00 0.00
2:54 am 02:54 Clear 11 -11.7 7 -13.9 84 84 S 3 6 30.19 1023 7 11 0.00 0.00
3:54 am 03:54 Clear 10 -12.2 7 -13.9 87 87 S 5 7 30.20 1023 8 13 0.00 0.00
4:54 am 04:54 Clear 10 -12.2 6 -14.4 84 84 S 6 9 30.20 1023 10 16 0.00 0.00
5:54 am 05:54 Clear 9 -12.8 5 -15 83 83 S 5 7 30.19 1022 9 14 0.00 0.00
6:54 am 06:54 Clear 12 -11.1 7 -13.9 80 80 SSW 5 7 30.22 1023 10 16 0.00 0.00
7:54 am 07:54 Sunny 10 -12.2 6 -14.4 84 84 S 3 6 30.22 1024 7 11 0.00 0.00
8:54 am 08:54 Sunny 16 -8.9 12 -11.1 84 84 WSW 5 7 30.22 1023 9 14 0.00 0.00
9:54 am 09:54 Sunny 20 -6.7 15 -9.4 81 81 WSW 9 15 30.23 1024 9 14 0.00 0.00
10:54 am 10:54 Sunny 24 -4.4 18 -7.8 77 77 SW 8 13 30.23 1024 8 13 0.00 0.00
11:54 am 11:54 Sunny 29 -1.7 20 -6.7 69 69 WSW 12 19 30.23 1024 10 16 0.00 0.00
12:54 pm 12:54 Sunny 31 -0.6 22 -5.6 69 69 WSW 6 9 30.21 1023 9 14 0.00 0.00
1:54 pm 13:54 Sunny 34 1.1 25 -3.9 69 69 WSW 7 11 30.19 1023 10 16 0.00 0.00
2:45 pm 14:45 Mostly Cloudy 36 2.2 27 -2.8 69 69 WSW 7 11 30.21 1023 10 16 0.00 0.00
2:54 pm 14:54 Cloudy 36 2.2 27 -2.8 69 69 WSW 6 9 30.22 1023 10 16 0.00 0.00
3:54 pm 15:54 Cloudy 37 2.8 29 -1.7 72 72 WNW 6 9 30.22 1023 10 16 0.00 0.00
4:06 pm 16:06 Cloudy 37 2.8 29 -1.7 72 72 WNW 5 7 30.22 1023 10 16 0.00 0.00
4:40 pm 16:40 Cloudy 37 2.8 30 -1.1 75 75 WNW 3 6 30.22 1023 10 16 0.00 0.00
4:54 pm 16:54 Cloudy 37 2.8 30 -1.1 75 75 WSW 3 6 30.22 1024 10 16 0.00 0.00
5:54 pm 17:54 Cloudy 36 2.2 30 -1.1 79 79 WSW 3 6 30.23 1024 10 16 0.00 0.00
6:54 pm 18:54 Cloudy 35 1.7 30 -1.1 82 82 Calm 30.24 1024 10 16 0.00 0.00
7:01 pm 19:01 Cloudy 35 1.7 30 -1.1 82 82 W 3 6 30.24 1024 10 16 0.00 0.00
7:54 pm 19:54 Cloudy 36 2.2 31 -0.6 82 82 NW 7 11 30.23 1024 10 16 0.00 0.00
8:54 pm 20:54 Cloudy 36 2.2 30 -1.1 79 79 NW 5 7 30.22 1023 10 16 0.00 0.00
9:54 pm 21:54 Cloudy 36 2.2 31 -0.6 82 82 Calm 30.21 1023 10 16 0.00 0.00
10:54 pm 22:54 Cloudy 35 1.7 30 -1.1 82 82 W 3 6 30.22 1023 10 16 0.00 0.00
11:54 pm 23:54 Cloudy 35 1.7 30 -1.1 82 82 W 3 6 30.22 1023 10 16 0.00 0.00

Powered by AerisWeather